Time,TemperatureF,DewpointF,PressureIn,WindDirection,WindDirectionDegrees,WindSpeedMPH,WindSpeedGustMPH,Humidity,HourlyPrecipIn,Conditions,Clouds,dailyrainin,SoftwareType,DateUTC
2013-03-19 00:03:00,26.7,18.2,30.05,West,278,0.0,-999.0,70,0.00,,,0.00,Wunderground v.1.15,2013-03-19 05:03:00,
2013-03-19 00:08:00,26.8,18.3,30.05,West,278,0.0,-999.0,70,0.00,,,0.00,Wunderground v.1.15,2013-03-19 05:08:00,
2013-03-19 00:13:00,26.9,18.7,30.05,West,278,0.0,-999.0,71,0.00,,,0.00,Wunderground v.1.15,2013-03-19 05:13:00,
2013-03-19 00:18:00,27.0,18.5,30.05,WNW,288,0.0,-999.0,70,0.00,,,0.00,Wunderground v.1.15,2013-03-19 05:18:00,
2013-03-19 00:23:00,27.1,18.9,30.06,WNW,287,0.0,-999.0,71,0.00,,,0.00,Wunderground v.1.15,2013-03-19 05:23:00,
2013-03-19 00:28:00,27.1,18.9,30.06,WNW,284,0.0,-999.0,71,0.00,,,0.00,Wunderground v.1.15,2013-03-19 05:28:00,
2013-03-19 00:34:00,27.2,19.0,30.07,WNW,284,0.0,-999.0,71,0.00,,,0.00,Wunderground v.1.15,2013-03-19 05:34:00,
2013-03-19 00:39:00,27.0,18.8,30.07,WNW,284,0.0,-999.0,71,0.00,,,0.00,Wunderground v.1.15,2013-03-19 05:39:00,
2013-03-19 00:44:00,26.9,19.1,30.06,WNW,284,0.0,-999.0,72,0.00,,,0.00,Wunderground v.1.15,2013-03-19 05:44:00,
2013-03-19 00:49:00,26.8,19.6,30.06,WNW,284,0.0,-999.0,74,0.00,,,0.00,Wunderground v.1.15,2013-03-19 05:49:00,
2013-03-19 00:54:00,26.7,18.9,30.06,WNW,284,0.0,-999.0,72,0.00,,,0.00,Wunderground v.1.15,2013-03-19 05:54:00,
2013-03-19 01:00:00,26.6,18.8,30.06,WNW,284,0.0,-999.0,72,0.00,,,0.00,Wunderground v.1.15,2013-03-19 06:00:00,
2013-03-19 01:05:00,26.5,19.6,30.06,WNW,284,0.0,-999.0,75,0.00,,,0.00,Wunderground v.1.15,2013-03-19 06:05:00,
2013-03-19 01:10:00,26.5,19.0,30.06,West,277,0.0,-999.0,73,0.00,,,0.00,Wunderground v.1.15,2013-03-19 06:10:00,
2013-03-19 01:15:00,26.5,19.0,30.06,WSW,243,0.0,-999.0,73,0.00,,,0.00,Wunderground v.1.15,2013-03-19 06:15:00,
2013-03-19 01:20:00,26.6,19.1,30.07,SW,226,0.0,-999.0,73,0.00,,,0.00,Wunderground v.1.15,2013-03-19 06:20:00,
2013-03-19 01:25:00,26.6,18.8,30.07,SW,227,0.0,-999.0,72,0.00,,,0.00,Wunderground v.1.15,2013-03-19 06:25:00,
2013-03-19 01:31:00,26.6,18.8,30.07,WNW,286,0.0,-999.0,72,0.00,,,0.00,Wunderground v.1.15,2013-03-19 06:31:00,
2013-03-19 01:36:00,26.6,18.8,30.07,WNW,287,0.0,-999.0,72,0.00,,,0.00,Wunderground v.1.15,2013-03-19 06:36:00,
2013-03-19 01:41:00,26.7,19.5,30.07,WNW,287,1.0,-999.0,74,0.00,,,0.00,Wunderground v.1.15,2013-03-19 06:41:00,
2013-03-19 01:46:00,26.9,18.7,30.07,WNW,287,0.0,-999.0,71,0.00,,,0.00,Wunderground v.1.15,2013-03-19 06:46:00,
2013-03-19 01:52:00,27.1,19.9,30.07,WNW,287,0.0,-999.0,74,0.00,,,0.00,Wunderground v.1.15,2013-03-19 06:52:00,
2013-03-19 01:57:00,27.1,18.6,30.07,SW,232,0.0,-999.0,70,0.00,,,0.00,Wunderground v.1.15,2013-03-19 06:57:00,
2013-03-19 02:02:00,27.1,18.9,30.07,SW,232,0.0,-999.0,71,0.00,,,0.00,Wunderground v.1.15,2013-03-19 07:02:00,
2013-03-19 02:07:00,27.0,18.8,30.08,WNW,300,0.0,-999.0,71,0.00,,,0.00,Wunderground v.1.15,2013-03-19 07:07:00,
2013-03-19 02:12:00,27.1,18.9,30.08,WNW,287,1.0,-999.0,71,0.00,,,0.00,Wunderground v.1.15,2013-03-19 07:12:00,
2013-03-19 02:17:00,27.2,18.7,30.08,West,265,0.0,-999.0,70,0.00,,,0.00,Wunderground v.1.15,2013-03-19 07:17:00,
2013-03-19 02:22:00,27.3,18.8,30.08,West,278,1.0,-999.0,70,0.00,,,0.00,Wunderground v.1.15,2013-03-19 07:22:00,
2013-03-19 02:27:00,27.4,18.9,30.08,WNW,284,0.0,-999.0,70,0.00,,,0.00,Wunderground v.1.15,2013-03-19 07:27:00,
2013-03-19 02:32:00,27.5,18.7,30.08,WNW,293,0.0,-999.0,69,0.00,,,0.00,Wunderground v.1.15,2013-03-19 07:32:00,
2013-03-19 02:37:00,27.6,18.4,30.08,WNW,293,1.0,-999.0,68,0.00,,,0.00,Wunderground v.1.15,2013-03-19 07:37:00,
2013-03-19 02:42:00,27.7,18.5,30.08,WNW,288,1.0,-999.0,68,0.00,,,0.00,Wunderground v.1.15,2013-03-19 07:42:00,
2013-03-19 02:48:00,27.7,18.2,30.09,WNW,294,0.0,-999.0,67,0.00,,,0.00,Wunderground v.1.15,2013-03-19 07:48:00,
2013-03-19 02:53:00,27.7,18.2,30.09,WNW,288,1.0,-999.0,67,0.00,,,0.00,Wunderground v.1.15,2013-03-19 07:53:00,
2013-03-19 02:58:00,27.8,18.3,30.09,West,281,0.0,-999.0,67,0.00,,,0.00,Wunderground v.1.15,2013-03-19 07:58:00,
2013-03-19 03:03:00,27.8,18.3,30.09,WNW,293,1.0,-999.0,67,0.00,,,0.00,Wunderground v.1.15,2013-03-19 08:03:00,
2013-03-19 03:08:00,27.9,18.7,30.09,West,265,0.0,-999.0,68,0.00,,,0.00,Wunderground v.1.15,2013-03-19 08:08:00,
2013-03-19 03:13:00,27.9,18.7,30.09,West,274,0.0,-999.0,68,0.00,,,0.00,Wunderground v.1.15,2013-03-19 08:13:00,
2013-03-19 03:18:00,27.8,18.6,30.10,West,274,0.0,-999.0,68,0.00,,,0.00,Wunderground v.1.15,2013-03-19 08:18:00,
2013-03-19 03:23:00,27.8,18.3,30.09,West,266,0.0,-999.0,67,0.00,,,0.00,Wunderground v.1.15,2013-03-19 08:23:00,
2013-03-19 03:28:00,27.6,18.4,30.09,West,265,0.0,-999.0,68,0.00,,,0.00,Wunderground v.1.15,2013-03-19 08:28:00,
2013-03-19 03:33:00,27.5,18.3,30.09,WNW,289,0.0,-999.0,68,0.00,,,0.00,Wunderground v.1.15,2013-03-19 08:33:00,
2013-03-19 03:38:00,27.5,18.7,30.09,WNW,290,0.0,-999.0,69,0.00,,,0.00,Wunderground v.1.15,2013-03-19 08:38:00,
2013-03-19 03:43:00,27.3,18.5,30.09,WNW,290,0.0,-999.0,69,0.00,,,0.00,Wunderground v.1.15,2013-03-19 08:43:00,
2013-03-19 03:48:00,27.1,17.9,30.08,WNW,290,0.0,-999.0,68,0.00,,,0.00,Wunderground v.1.15,2013-03-19 08:48:00,
2013-03-19 03:53:00,26.9,18.1,30.08,WNW,290,0.0,-999.0,69,0.00,,,0.00,Wunderground v.1.15,2013-03-19 08:53:00,
2013-03-19 03:58:00,26.8,18.3,30.08,WNW,291,0.0,-999.0,70,0.00,,,0.00,Wunderground v.1.15,2013-03-19 08:58:00,
2013-03-19 04:03:00,26.6,18.5,30.08,WNW,291,0.0,-999.0,71,0.00,,,0.00,Wunderground v.1.15,2013-03-19 09:03:00,
2013-03-19 04:08:00,26.5,18.4,30.08,WNW,294,0.0,-999.0,71,0.00,,,0.00,Wunderground v.1.15,2013-03-19 09:08:00,
2013-03-19 04:13:00,26.4,18.6,30.08,WNW,294,0.0,-999.0,72,0.00,,,0.00,Wunderground v.1.15,2013-03-19 09:13:00,
2013-03-19 04:18:00,26.3,18.8,30.08,WNW,300,0.0,-999.0,73,0.00,,,0.00,Wunderground v.1.15,2013-03-19 09:18:00,
2013-03-19 04:23:00,26.0,18.8,30.08,WNW,300,0.0,-999.0,74,0.00,,,0.00,Wunderground v.1.15,2013-03-19 09:23:00,
2013-03-19 04:28:00,25.8,19.0,30.09,WNW,300,0.0,-999.0,75,0.00,,,0.00,Wunderground v.1.15,2013-03-19 09:28:00,
2013-03-19 04:33:00,25.6,18.8,30.09,WNW,300,0.0,-999.0,75,0.00,,,0.00,Wunderground v.1.15,2013-03-19 09:33:00,
2013-03-19 04:38:00,25.5,18.7,30.09,WNW,300,0.0,-999.0,75,0.00,,,0.00,Wunderground v.1.15,2013-03-19 09:38:00,
2013-03-19 04:43:00,25.3,18.5,30.09,WNW,300,0.0,-999.0,75,0.00,,,0.00,Wunderground v.1.15,2013-03-19 09:43:00,
2013-03-19 04:48:00,25.0,18.5,30.09,NNE,33,0.0,-999.0,76,0.00,,,0.00,Wunderground v.1.15,2013-03-19 09:48:00,
2013-03-19 04:53:00,24.8,18.6,30.09,NNE,32,0.0,-999.0,77,0.00,,,0.00,Wunderground v.1.15,2013-03-19 09:53:00,
2013-03-19 04:58:00,24.5,18.3,30.09,NE,41,0.0,-999.0,77,0.00,,,0.00,Wunderground v.1.15,2013-03-19 09:58:00,
2013-03-19 05:03:00,24.2,18.0,30.09,NE,41,0.0,-999.0,77,0.00,,,0.00,Wunderground v.1.15,2013-03-19 10:03:00,
2013-03-19 05:08:00,23.9,18.0,30.09,NE,41,0.0,-999.0,78,0.00,,,0.00,Wunderground v.1.15,2013-03-19 10:08:00,
2013-03-19 05:13:00,23.7,17.8,30.09,NE,41,0.0,-999.0,78,0.00,,,0.00,Wunderground v.1.15,2013-03-19 10:13:00,
2013-03-19 05:18:00,23.4,17.8,30.09,NE,41,0.0,-999.0,79,0.00,,,0.00,Wunderground v.1.15,2013-03-19 10:18:00,
2013-03-19 05:23:00,23.0,17.5,30.09,NE,41,0.0,-999.0,79,0.00,,,0.00,Wunderground v.1.15,2013-03-19 10:23:00,
2013-03-19 05:28:00,22.6,17.4,30.10,NE,41,0.0,-999.0,80,0.00,,,0.00,Wunderground v.1.15,2013-03-19 10:28:00,
2013-03-19 05:33:00,22.3,17.4,30.10,NE,41,0.0,-999.0,81,0.00,,,0.00,Wunderground v.1.15,2013-03-19 10:33:00,
2013-03-19 05:38:00,22.1,17.4,30.11,NE,41,0.0,-999.0,82,0.00,,,0.00,Wunderground v.1.15,2013-03-19 10:38:00,
2013-03-19 05:43:00,22.0,17.6,30.11,NE,41,0.0,-999.0,83,0.00,,,0.00,Wunderground v.1.15,2013-03-19 10:43:00,
2013-03-19 05:48:00,22.0,17.3,30.11,NE,41,0.0,-999.0,82,0.00,,,0.00,Wunderground v.1.15,2013-03-19 10:48:00,
2013-03-19 05:53:00,21.8,17.7,30.12,NE,41,0.0,-999.0,84,0.00,,,0.00,Wunderground v.1.15,2013-03-19 10:53:00,
2013-03-19 05:58:00,21.7,17.6,30.12,NE,41,0.0,-999.0,84,0.00,,,0.00,Wunderground v.1.15,2013-03-19 10:58:00,
2013-03-19 06:03:00,21.7,17.6,30.12,NE,41,0.0,-999.0,84,0.00,,,0.00,Wunderground v.1.15,2013-03-19 11:03:00,
2013-03-19 06:08:00,21.6,17.5,30.13,NE,41,0.0,-999.0,84,0.00,,,0.00,Wunderground v.1.15,2013-03-19 11:08:00,
2013-03-19 06:13:00,21.6,17.5,30.13,NE,41,0.0,-999.0,84,0.00,,,0.00,Wunderground v.1.15,2013-03-19 11:13:00,
2013-03-19 06:18:00,21.5,17.4,30.12,NE,41,0.0,-999.0,84,0.00,,,0.00,Wunderground v.1.15,2013-03-19 11:18:00,
2013-03-19 06:23:00,21.3,17.2,30.12,NE,41,0.0,-999.0,84,0.00,,,0.00,Wunderground v.1.15,2013-03-19 11:23:00,
2013-03-19 06:28:00,21.0,16.9,30.13,NE,41,0.0,-999.0,84,0.00,,,0.00,Wunderground v.1.15,2013-03-19 11:28:00,
2013-03-19 06:33:00,20.8,16.7,30.13,NE,41,0.0,-999.0,84,0.00,,,0.00,Wunderground v.1.15,2013-03-19 11:33:00,
2013-03-19 06:38:00,20.6,16.8,30.13,NE,41,0.0,-999.0,85,0.00,,,0.00,Wunderground v.1.15,2013-03-19 11:38:00,
2013-03-19 06:43:00,20.4,16.6,30.13,NE,41,0.0,-999.0,85,0.00,,,0.00,Wunderground v.1.15,2013-03-19 11:43:00,
2013-03-19 06:48:00,20.3,16.8,30.13,NE,41,0.0,-999.0,86,0.00,,,0.00,Wunderground v.1.15,2013-03-19 11:48:00,
2013-03-19 06:53:00,20.2,16.7,30.14,NE,41,0.0,-999.0,86,0.00,,,0.00,Wunderground v.1.15,2013-03-19 11:53:00,
2013-03-19 06:58:00,20.3,16.8,30.14,NE,41,0.0,-999.0,86,0.00,,,0.00,Wunderground v.1.15,2013-03-19 11:58:00,
2013-03-19 07:03:00,20.3,16.8,30.14,NE,41,0.0,-999.0,86,0.00,,,0.00,Wunderground v.1.15,2013-03-19 12:03:00,
2013-03-19 07:08:00,20.4,16.6,30.14,NE,41,0.0,-999.0,85,0.00,,,0.00,Wunderground v.1.15,2013-03-19 12:08:00,
2013-03-19 07:13:00,20.7,16.6,30.15,NE,41,0.0,-999.0,84,0.00,,,0.00,Wunderground v.1.15,2013-03-19 12:13:00,
2013-03-19 07:18:00,20.9,16.5,30.15,NE,41,0.0,-999.0,83,0.00,,,0.00,Wunderground v.1.15,2013-03-19 12:18:00,
2013-03-19 07:23:00,21.0,16.4,30.15,NE,41,0.0,-999.0,82,0.00,,,0.00,Wunderground v.1.15,2013-03-19 12:23:00,
2013-03-19 07:28:00,20.9,16.3,30.15,NE,41,0.0,-999.0,82,0.00,,,0.00,Wunderground v.1.15,2013-03-19 12:28:00,
2013-03-19 07:33:00,20.9,16.8,30.15,NE,41,0.0,-999.0,84,0.00,,,0.00,Wunderground v.1.15,2013-03-19 12:33:00,
2013-03-19 07:38:00,20.9,16.8,30.15,NE,41,0.0,-999.0,84,0.00,,,0.00,Wunderground v.1.15,2013-03-19 12:38:00,
2013-03-19 07:43:00,20.9,16.8,30.15,NE,41,0.0,-999.0,84,0.00,,,0.00,Wunderground v.1.15,2013-03-19 12:43:00,
2013-03-19 07:48:00,20.9,16.5,30.16,NE,41,0.0,-999.0,83,0.00,,,0.00,Wunderground v.1.15,2013-03-19 12:48:00,
2013-03-19 07:53:00,20.9,16.3,30.16,NE,41,0.0,-999.0,82,0.00,,,0.00,Wunderground v.1.15,2013-03-19 12:53:00,
2013-03-19 07:58:00,21.2,16.6,30.16,NE,41,0.0,-999.0,82,0.00,,,0.00,Wunderground v.1.15,2013-03-19 12:58:00,
2013-03-19 08:03:00,21.4,16.2,30.16,NE,41,0.0,-999.0,80,0.00,,,0.00,Wunderground v.1.15,2013-03-19 13:03:00,
2013-03-19 08:08:00,21.7,16.5,30.17,NE,41,0.0,-999.0,80,0.00,,,0.00,Wunderground v.1.15,2013-03-19 13:08:00,
2013-03-19 08:13:00,21.8,16.3,30.17,NE,41,0.0,-999.0,79,0.00,,,0.00,Wunderground v.1.15,2013-03-19 13:13:00,
2013-03-19 08:18:00,22.0,16.5,30.17,NE,41,0.0,-999.0,79,0.00,,,0.00,Wunderground v.1.15,2013-03-19 13:18:00,
2013-03-19 08:23:00,22.3,16.5,30.17,NE,41,0.0,-999.0,78,0.00,,,0.00,Wunderground v.1.15,2013-03-19 13:23:00,
2013-03-19 08:28:00,22.5,16.7,30.17,NE,41,0.0,-999.0,78,0.00,,,0.00,Wunderground v.1.15,2013-03-19 13:28:00,
2013-03-19 08:33:00,22.9,16.8,30.17,NE,41,0.0,-999.0,77,0.00,,,0.00,Wunderground v.1.15,2013-03-19 13:33:00,
2013-03-19 08:38:00,23.3,17.2,30.17,NE,41,0.0,-999.0,77,0.00,,,0.00,Wunderground v.1.15,2013-03-19 13:38:00,
2013-03-19 08:43:00,23.8,17.0,30.17,NNW,346,0.0,-999.0,75,0.00,,,0.00,Wunderground v.1.15,2013-03-19 13:43:00,
2013-03-19 08:48:00,24.1,17.6,30.17,NW,316,0.0,-999.0,76,0.00,,,0.00,Wunderground v.1.15,2013-03-19 13:48:00,
2013-03-19 08:53:00,24.6,18.7,30.17,North,6,1.0,-999.0,78,0.00,,,0.00,Wunderground v.1.15,2013-03-19 13:53:00,
2013-03-19 08:58:00,25.1,18.6,30.17,NE,53,0.0,-999.0,76,0.00,,,0.00,Wunderground v.1.15,2013-03-19 13:58:00,
2013-03-19 09:03:00,25.4,18.6,30.17,North,5,0.0,-999.0,75,0.00,,,0.00,Wunderground v.1.15,2013-03-19 14:03:00,
2013-03-19 09:08:00,25.6,18.1,30.17,NNW,338,0.0,-999.0,73,0.00,,,0.00,Wunderground v.1.15,2013-03-19 14:08:00,
2013-03-19 09:13:00,25.8,17.4,30.17,NNW,342,1.0,-999.0,70,0.00,,,0.00,Wunderground v.1.15,2013-03-19 14:13:00,
2013-03-19 09:18:00,25.9,17.1,30.18,NNW,348,0.0,-999.0,69,0.00,,,0.00,Wunderground v.1.15,2013-03-19 14:18:00,
2013-03-19 09:23:00,26.1,18.3,30.18,North,349,0.0,-999.0,72,0.00,,,0.00,Wunderground v.1.15,2013-03-19 14:23:00,
2013-03-19 09:28:00,26.6,18.1,30.19,North,349,0.0,-999.0,70,0.00,,,0.00,Wunderground v.1.15,2013-03-19 14:28:00,
2013-03-19 09:33:00,26.6,18.1,30.19,NNW,347,0.0,-999.0,70,0.00,,,0.00,Wunderground v.1.15,2013-03-19 14:33:00,
2013-03-19 09:38:00,27.0,18.5,30.19,East,91,0.0,-999.0,70,0.00,,,0.00,Wunderground v.1.15,2013-03-19 14:38:00,
2013-03-19 09:43:00,27.3,18.1,30.19,East,90,0.0,-999.0,68,0.00,,,0.00,Wunderground v.1.15,2013-03-19 14:43:00,
2013-03-19 09:48:00,27.5,18.3,30.19,East,90,0.0,-999.0,68,0.00,,,0.00,Wunderground v.1.15,2013-03-19 14:48:00,
2013-03-19 09:53:00,27.8,17.6,30.20,ENE,71,0.0,-999.0,65,0.00,,,0.00,Wunderground v.1.15,2013-03-19 14:53:00,
2013-03-19 09:58:00,27.6,17.7,30.20,NE,34,0.0,-999.0,66,0.00,,,0.00,Wunderground v.1.15,2013-03-19 14:58:00,
2013-03-19 10:03:00,27.6,17.7,30.20,WSW,253,0.0,-999.0,66,0.00,,,0.00,Wunderground v.1.15,2013-03-19 15:03:00,
2013-03-19 10:08:00,27.8,17.6,30.20,ESE,104,0.0,-999.0,65,0.00,,,0.00,Wunderground v.1.15,2013-03-19 15:08:00,
2013-03-19 10:13:00,27.9,18.0,30.20,SSE,168,1.0,-999.0,66,0.00,,,0.00,Wunderground v.1.15,2013-03-19 15:13:00,
2013-03-19 10:18:00,28.1,17.8,30.21,SSE,158,0.0,-999.0,65,0.00,,,0.00,Wunderground v.1.15,2013-03-19 15:18:00,
2013-03-19 10:23:00,28.0,17.7,30.21,SE,145,1.0,-999.0,65,0.00,,,0.00,Wunderground v.1.15,2013-03-19 15:23:00,
2013-03-19 10:28:00,28.1,17.8,30.21,SSE,155,1.0,-999.0,65,0.00,,,0.00,Wunderground v.1.15,2013-03-19 15:28:00,
2013-03-19 10:33:00,28.5,18.6,30.21,SE,145,0.0,-999.0,66,0.00,,,0.00,Wunderground v.1.15,2013-03-19 15:33:00,
2013-03-19 10:38:00,28.8,18.5,30.22,SE,143,0.0,-999.0,65,0.00,,,0.00,Wunderground v.1.15,2013-03-19 15:38:00,
2013-03-19 10:43:00,29.2,18.9,30.22,SE,143,0.0,-999.0,65,0.00,,,0.00,Wunderground v.1.15,2013-03-19 15:43:00,
2013-03-19 10:48:00,29.5,18.4,30.22,SSE,153,0.0,-999.0,63,0.00,,,0.00,Wunderground v.1.15,2013-03-19 15:48:00,
2013-03-19 10:53:00,29.7,18.6,30.22,SSE,156,0.0,-999.0,63,0.00,,,0.00,Wunderground v.1.15,2013-03-19 15:53:00,
2013-03-19 10:58:00,29.9,18.8,30.22,SE,141,0.0,-999.0,63,0.00,,,0.00,Wunderground v.1.15,2013-03-19 15:58:00,
2013-03-19 11:03:00,30.1,19.0,30.22,ESE,116,2.0,-999.0,63,0.00,,,0.00,Wunderground v.1.15,2013-03-19 16:03:00,
2013-03-19 11:08:00,30.2,18.7,30.22,SSE,167,3.0,-999.0,62,0.00,,,0.00,Wunderground v.1.15,2013-03-19 16:08:00,
2013-03-19 11:14:00,30.5,18.3,30.22,SSE,162,0.0,-999.0,60,0.00,,,0.00,Wunderground v.1.15,2013-03-19 16:14:00,
2013-03-19 11:19:00,30.9,19.0,30.21,SSE,158,0.0,-999.0,61,0.00,,,0.00,Wunderground v.1.15,2013-03-19 16:19:00,
2013-03-19 11:24:00,31.4,18.7,30.22,ESE,114,1.0,-999.0,59,0.00,,,0.00,Wunderground v.1.15,2013-03-19 16:24:00,
2013-03-19 11:29:00,31.8,18.7,30.22,SSE,162,1.0,-999.0,58,0.00,,,0.00,Wunderground v.1.15,2013-03-19 16:29:00,
2013-03-19 11:34:00,32.4,19.3,30.22,SSE,162,0.0,-999.0,58,0.00,,,0.00,Wunderground v.1.15,2013-03-19 16:34:00,
2013-03-19 11:39:00,33.0,19.8,30.22,SSW,200,0.0,-999.0,58,0.00,,,0.00,Wunderground v.1.15,2013-03-19 16:39:00,
2013-03-19 11:44:00,33.8,19.7,30.22,SE,125,0.0,-999.0,56,0.00,,,0.00,Wunderground v.1.15,2013-03-19 16:44:00,
2013-03-19 11:49:00,34.1,20.0,30.22,SE,126,0.0,-999.0,56,0.00,,,0.00,Wunderground v.1.15,2013-03-19 16:49:00,
2013-03-19 11:54:00,34.3,19.4,30.22,SSE,150,0.0,-999.0,54,0.00,,,0.00,Wunderground v.1.15,2013-03-19 16:54:00,
2013-03-19 11:59:00,34.9,19.0,30.22,SSE,162,0.0,-999.0,52,0.00,,,0.00,Wunderground v.1.15,2013-03-19 16:59:00,
2013-03-19 12:04:00,35.1,19.2,30.22,SSE,163,1.0,-999.0,52,0.00,,,0.00,Wunderground v.1.15,2013-03-19 17:04:00,
2013-03-19 12:09:00,35.2,19.8,30.22,SSE,160,0.0,-999.0,53,0.00,,,0.00,Wunderground v.1.15,2013-03-19 17:09:00,
2013-03-19 12:14:00,35.5,19.1,30.22,SSW,201,0.0,-999.0,51,0.00,,,0.00,Wunderground v.1.15,2013-03-19 17:14:00,
2013-03-19 12:19:00,35.5,19.1,30.22,SSW,212,1.0,-999.0,51,0.00,,,0.00,Wunderground v.1.15,2013-03-19 17:19:00,
2013-03-19 12:24:00,35.8,19.0,30.22,South,191,2.0,-999.0,50,0.00,,,0.00,Wunderground v.1.15,2013-03-19 17:24:00,
2013-03-19 12:29:00,36.1,18.8,30.22,SSE,161,0.0,-999.0,49,0.00,,,0.00,Wunderground v.1.15,2013-03-19 17:29:00,
2013-03-19 12:34:00,36.3,18.9,30.22,South,172,0.0,-999.0,49,0.00,,,0.00,Wunderground v.1.15,2013-03-19 17:34:00,
2013-03-19 12:39:00,36.4,19.5,30.21,SSE,155,2.0,-999.0,50,0.00,,,0.00,Wunderground v.1.15,2013-03-19 17:39:00,
2013-03-19 12:44:00,36.4,19.0,30.21,SSE,149,2.0,-999.0,49,0.00,,,0.00,Wunderground v.1.15,2013-03-19 17:44:00,
2013-03-19 12:49:00,36.5,19.1,30.21,SSE,167,2.0,-999.0,49,0.00,,,0.00,Wunderground v.1.15,2013-03-19 17:49:00,
2013-03-19 12:54:00,36.5,18.6,30.21,South,183,1.0,-999.0,48,0.00,,,0.00,Wunderground v.1.15,2013-03-19 17:54:00,
2013-03-19 12:59:00,36.7,18.8,30.21,SSE,163,3.0,-999.0,48,0.00,,,0.00,Wunderground v.1.15,2013-03-19 17:59:00,
2013-03-19 13:04:00,36.9,19.0,30.20,SSW,204,2.0,-999.0,48,0.00,,,0.00,Wunderground v.1.15,2013-03-19 18:04:00,
2013-03-19 13:09:00,37.0,19.6,30.21,SSE,160,5.0,-999.0,49,0.00,,,0.00,Wunderground v.1.15,2013-03-19 18:09:00,
2013-03-19 13:14:00,37.2,19.3,30.20,SSE,167,5.0,-999.0,48,0.00,,,0.00,Wunderground v.1.15,2013-03-19 18:14:00,
2013-03-19 13:19:00,37.4,19.5,30.20,SSE,158,5.0,-999.0,48,0.00,,,0.00,Wunderground v.1.15,2013-03-19 18:19:00,
2013-03-19 13:24:00,37.5,19.1,30.20,South,188,4.0,-999.0,47,0.00,,,0.00,Wunderground v.1.15,2013-03-19 18:24:00,
2013-03-19 13:29:00,37.7,19.3,30.20,South,170,4.0,-999.0,47,0.00,,,0.00,Wunderground v.1.15,2013-03-19 18:29:00,
2013-03-19 13:34:00,38.2,20.7,30.20,SSE,158,7.0,-999.0,49,0.00,,,0.00,Wunderground v.1.15,2013-03-19 18:34:00,
2013-03-19 13:39:00,38.3,19.8,30.20,South,174,7.0,-999.0,47,0.00,,,0.00,Wunderground v.1.15,2013-03-19 18:39:00,
2013-03-19 13:44:00,38.5,19.0,30.20,SSW,195,2.0,-999.0,45,0.00,,,0.00,Wunderground v.1.15,2013-03-19 18:44:00,
2013-03-19 13:49:00,38.7,19.2,30.20,SSE,165,10.0,-999.0,45,0.00,,,0.00,Wunderground v.1.15,2013-03-19 18:49:00,
2013-03-19 13:54:00,39.0,18.9,30.19,SE,143,5.0,-999.0,44,0.00,,,0.00,Wunderground v.1.15,2013-03-19 18:54:00,
2013-03-19 13:59:00,39.3,20.2,30.19,SSE,165,4.0,-999.0,46,0.00,,,0.00,Wunderground v.1.15,2013-03-19 18:59:00,
2013-03-19 14:04:00,39.9,20.3,30.19,SSE,151,8.0,-999.0,45,0.00,,,0.00,Wunderground v.1.15,2013-03-19 19:04:00,
2013-03-19 14:09:00,40.3,19.0,30.19,SW,229,3.0,-999.0,42,0.00,,,0.00,Wunderground v.1.15,2013-03-19 19:09:00,
2013-03-19 14:14:00,40.7,22.0,30.19,SSW,197,2.0,-999.0,47,0.00,,,0.00,Wunderground v.1.15,2013-03-19 19:14:00,
2013-03-19 14:19:00,41.1,20.3,30.19,SW,217,4.0,-999.0,43,0.00,,,0.00,Wunderground v.1.15,2013-03-19 19:19:00,
2013-03-19 14:24:00,41.4,20.5,30.19,SW,236,4.0,-999.0,43,0.00,,,0.00,Wunderground v.1.15,2013-03-19 19:24:00,
2013-03-19 14:29:00,41.3,21.0,30.18,SE,131,5.0,-999.0,44,0.00,,,0.00,Wunderground v.1.15,2013-03-19 19:29:00,
2013-03-19 14:34:00,41.7,22.4,30.18,South,184,4.0,-999.0,46,0.00,,,0.00,Wunderground v.1.15,2013-03-19 19:34:00,
2013-03-19 14:39:00,42.2,21.8,30.18,SSW,198,7.0,-999.0,44,0.00,,,0.00,Wunderground v.1.15,2013-03-19 19:39:00,
2013-03-19 14:44:00,42.5,22.1,30.18,SSE,153,6.0,-999.0,44,0.00,,,0.00,Wunderground v.1.15,2013-03-19 19:44:00,
2013-03-19 14:49:00,42.6,21.6,30.17,SSE,147,1.0,-999.0,43,0.00,,,0.00,Wunderground v.1.15,2013-03-19 19:49:00,
2013-03-19 14:54:00,42.9,21.9,30.17,East,84,9.0,-999.0,43,0.00,,,0.00,Wunderground v.1.15,2013-03-19 19:54:00,
2013-03-19 14:59:00,43.3,22.8,30.16,South,176,3.0,-999.0,44,0.00,,,0.00,Wunderground v.1.15,2013-03-19 19:59:00,
2013-03-19 15:04:00,43.6,21.4,30.16,SSW,199,6.0,-999.0,41,0.00,,,0.00,Wunderground v.1.15,2013-03-19 20:04:00,
2013-03-19 15:09:00,44.2,22.0,30.16,SW,236,8.0,-999.0,41,0.00,,,0.00,Wunderground v.1.15,2013-03-19 20:09:00,
2013-03-19 15:14:00,44.9,22.6,30.16,South,174,2.0,-999.0,41,0.00,,,0.00,Wunderground v.1.15,2013-03-19 20:14:00,
2013-03-19 15:19:00,45.4,23.0,30.15,South,172,6.0,-999.0,41,0.00,,,0.00,Wunderground v.1.15,2013-03-19 20:19:00,
2013-03-19 15:24:00,45.9,22.9,30.15,SSE,153,10.0,-999.0,40,0.00,,,0.00,Wunderground v.1.15,2013-03-19 20:24:00,
2013-03-19 15:29:00,45.9,22.9,30.14,SSE,158,8.0,-999.0,40,0.00,,,0.00,Wunderground v.1.15,2013-03-19 20:29:00,
2013-03-19 15:34:00,46.5,25.2,30.15,ESE,110,3.0,-999.0,43,0.00,,,0.00,Wunderground v.1.15,2013-03-19 20:34:00,
2013-03-19 15:39:00,47.1,24.6,30.14,South,181,2.0,-999.0,41,0.00,,,0.00,Wunderground v.1.15,2013-03-19 20:39:00,
2013-03-19 15:44:00,47.7,25.7,30.14,WSW,246,1.0,-999.0,42,0.00,,,0.00,Wunderground v.1.15,2013-03-19 20:44:00,
2013-03-19 15:49:00,48.1,26.6,30.14,West,262,3.0,-999.0,43,0.00,,,0.00,Wunderground v.1.15,2013-03-19 20:49:00,
2013-03-19 15:54:00,48.1,26.1,30.14,SE,142,2.0,-999.0,42,0.00,,,0.00,Wunderground v.1.15,2013-03-19 20:54:00,
2013-03-19 15:59:00,47.7,26.8,30.14,WNW,291,0.0,-999.0,44,0.00,,,0.00,Wunderground v.1.15,2013-03-19 20:59:00,
2013-03-19 16:05:00,47.4,26.0,30.14,WNW,300,3.0,-999.0,43,0.00,,,0.00,Wunderground v.1.15,2013-03-19 21:05:00,
2013-03-19 16:10:00,47.9,27.0,30.13,SSW,209,1.0,-999.0,44,0.00,,,0.00,Wunderground v.1.15,2013-03-19 21:10:00,
2013-03-19 16:15:00,48.3,26.8,30.13,West,259,1.0,-999.0,43,0.00,,,0.00,Wunderground v.1.15,2013-03-19 21:15:00,
2013-03-19 16:20:00,48.6,27.6,30.13,West,263,1.0,-999.0,44,0.00,,,0.00,Wunderground v.1.15,2013-03-19 21:20:00,
2013-03-19 16:25:00,48.6,27.6,30.13,WSW,238,3.0,-999.0,44,0.00,,,0.00,Wunderground v.1.15,2013-03-19 21:25:00,
2013-03-19 16:30:00,48.1,27.2,30.13,SSW,212,1.0,-999.0,44,0.00,,,0.00,Wunderground v.1.15,2013-03-19 21:30:00,
2013-03-19 16:35:00,47.7,27.4,30.13,WSW,253,0.0,-999.0,45,0.00,,,0.00,Wunderground v.1.15,2013-03-19 21:35:00,
2013-03-19 16:40:00,47.5,27.2,30.13,SSW,212,2.0,-999.0,45,0.00,,,0.00,Wunderground v.1.15,2013-03-19 21:40:00,
2013-03-19 16:45:00,47.3,27.5,30.13,SSE,168,0.0,-999.0,46,0.00,,,0.00,Wunderground v.1.15,2013-03-19 21:45:00,
2013-03-19 16:50:00,47.2,26.9,30.13,SSE,168,0.0,-999.0,45,0.00,,,0.00,Wunderground v.1.15,2013-03-19 21:50:00,
2013-03-19 16:55:00,47.3,27.0,30.13,WSW,250,0.0,-999.0,45,0.00,,,0.00,Wunderground v.1.15,2013-03-19 21:55:00,
2013-03-19 17:00:00,48.2,27.8,30.13,South,171,1.0,-999.0,45,0.00,,,0.00,Wunderground v.1.15,2013-03-19 22:00:00,
2013-03-19 17:05:00,49.2,28.2,30.13,West,264,0.0,-999.0,44,0.00,,,0.00,Wunderground v.1.15,2013-03-19 22:05:00,
2013-03-19 17:10:00,50.1,29.0,30.13,SW,226,4.0,-999.0,44,0.00,,,0.00,Wunderground v.1.15,2013-03-19 22:10:00,
2013-03-19 17:15:00,50.0,28.4,30.13,SSW,211,1.0,-999.0,43,0.00,,,0.00,Wunderground v.1.15,2013-03-19 22:15:00,
2013-03-19 17:20:00,50.3,28.1,30.12,SW,222,2.0,-999.0,42,0.00,,,0.00,Wunderground v.1.15,2013-03-19 22:20:00,
2013-03-19 17:25:00,50.4,28.1,30.13,South,184,1.0,-999.0,42,0.00,,,0.00,Wunderground v.1.15,2013-03-19 22:25:00,
2013-03-19 17:30:00,50.8,26.7,30.13,West,278,1.0,-999.0,39,0.00,,,0.00,Wunderground v.1.15,2013-03-19 22:30:00,
2013-03-19 17:35:00,50.9,26.8,30.13,West,263,0.0,-999.0,39,0.00,,,0.00,Wunderground v.1.15,2013-03-19 22:35:00,
2013-03-19 17:40:00,51.5,27.3,30.13,WNW,302,2.0,-999.0,39,0.00,,,0.00,Wunderground v.1.15,2013-03-19 22:40:00,
2013-03-19 17:45:00,51.6,26.8,30.13,SW,234,3.0,-999.0,38,0.00,,,0.00,Wunderground v.1.15,2013-03-19 22:45:00,
2013-03-19 17:50:00,51.3,24.5,30.13,NW,305,3.0,-999.0,35,0.00,,,0.00,Wunderground v.1.15,2013-03-19 22:50:00,
2013-03-19 17:55:00,51.3,21.6,30.13,WNW,302,4.0,-999.0,31,0.00,,,0.00,Wunderground v.1.15,2013-03-19 22:55:00,
2013-03-19 18:00:00,51.2,21.6,30.14,NW,310,5.0,-999.0,31,0.00,,,0.00,Wunderground v.1.15,2013-03-19 23:00:00,
2013-03-19 18:05:00,51.2,20.8,30.14,WNW,300,5.0,-999.0,30,0.00,,,0.00,Wunderground v.1.15,2013-03-19 23:05:00,
2013-03-19 18:10:00,50.8,19.6,30.14,NNW,330,7.0,-999.0,29,0.00,,,0.00,Wunderground v.1.15,2013-03-19 23:10:00,
2013-03-19 18:15:00,50.4,21.6,30.15,North,11,3.0,-999.0,32,0.00,,,0.00,Wunderground v.1.15,2013-03-19 23:15:00,
2013-03-19 18:20:00,50.1,21.3,30.15,NW,307,6.0,-999.0,32,0.00,,,0.00,Wunderground v.1.15,2013-03-19 23:20:00,
2013-03-19 18:25:00,49.9,21.9,30.15,NNW,338,4.0,-999.0,33,0.00,,,0.00,Wunderground v.1.15,2013-03-19 23:25:00,
2013-03-19 18:30:00,49.6,21.6,30.15,NNW,333,6.0,-999.0,33,0.00,,,0.00,Wunderground v.1.15,2013-03-19 23:30:00,
2013-03-19 18:35:00,49.0,21.8,30.16,WNW,299,2.0,-999.0,34,0.00,,,0.00,Wunderground v.1.15,2013-03-19 23:35:00,
2013-03-19 18:40:00,48.5,21.4,30.15,NW,311,3.0,-999.0,34,0.00,,,0.00,Wunderground v.1.15,2013-03-19 23:40:00,
2013-03-19 18:45:00,48.2,21.8,30.15,NNW,330,4.0,-999.0,35,0.00,,,0.00,Wunderground v.1.15,2013-03-19 23:45:00,
2013-03-19 18:50:00,47.8,21.4,30.16,WNW,293,0.0,-999.0,35,0.00,,,0.00,Wunderground v.1.15,2013-03-19 23:50:00,
2013-03-19 18:55:00,47.3,22.3,30.16,NW,325,4.0,-999.0,37,0.00,,,0.00,Wunderground v.1.15,2013-03-19 23:55:00,
2013-03-19 19:00:00,46.7,23.0,30.16,NW,321,0.0,-999.0,39,0.00,,,0.00,Wunderground v.1.15,2013-03-20 00:00:00,
2013-03-19 19:05:00,46.1,21.2,30.16,NNW,347,5.0,-999.0,37,0.00,,,0.00,Wunderground v.1.15,2013-03-20 00:05:00,
2013-03-19 19:10:00,45.7,20.9,30.16,NW,326,3.0,-999.0,37,0.00,,,0.00,Wunderground v.1.15,2013-03-20 00:10:00,
2013-03-19 19:15:00,45.3,21.2,30.16,NNW,335,1.0,-999.0,38,0.00,,,0.00,Wunderground v.1.15,2013-03-20 00:15:00,
2013-03-19 19:20:00,44.9,20.8,30.16,NW,315,0.0,-999.0,38,0.00,,,0.00,Wunderground v.1.15,2013-03-20 00:20:00,
2013-03-19 19:25:00,44.4,21.0,30.17,NW,309,2.0,-999.0,39,0.00,,,0.00,Wunderground v.1.15,2013-03-20 00:25:00,
2013-03-19 19:30:00,44.2,20.2,30.17,WNW,302,0.0,-999.0,38,0.00,,,0.00,Wunderground v.1.15,2013-03-20 00:30:00,
2013-03-19 19:35:00,43.9,20.5,30.17,NW,313,2.0,-999.0,39,0.00,,,0.00,Wunderground v.1.15,2013-03-20 00:35:00,
2013-03-19 19:40:00,43.4,20.1,30.17,NNW,332,2.0,-999.0,39,0.00,,,0.00,Wunderground v.1.15,2013-03-20 00:40:00,
2013-03-19 19:45:00,43.1,19.8,30.17,NW,322,3.0,-999.0,39,0.00,,,0.00,Wunderground v.1.15,2013-03-20 00:45:00,
2013-03-19 19:50:00,42.8,19.5,30.18,NW,315,2.0,-999.0,39,0.00,,,0.00,Wunderground v.1.15,2013-03-20 00:50:00,
2013-03-19 19:55:00,42.5,18.0,30.18,NW,319,0.0,-999.0,37,0.00,,,0.00,Wunderground v.1.15,2013-03-20 00:55:00,
2013-03-19 20:00:00,41.9,18.1,30.18,NNW,333,2.0,-999.0,38,0.00,,,0.00,Wunderground v.1.15,2013-03-20 01:00:00,
2013-03-19 20:05:00,41.0,19.6,30.19,NW,324,0.0,-999.0,42,0.00,,,0.00,Wunderground v.1.15,2013-03-20 01:05:00,
2013-03-19 20:10:00,40.3,20.1,30.19,NW,325,0.0,-999.0,44,0.00,,,0.00,Wunderground v.1.15,2013-03-20 01:10:00,
2013-03-19 20:15:00,39.6,20.0,30.19,NW,325,0.0,-999.0,45,0.00,,,0.00,Wunderground v.1.15,2013-03-20 01:15:00,
2013-03-19 20:20:00,39.1,20.0,30.20,NW,325,0.0,-999.0,46,0.00,,,0.00,Wunderground v.1.15,2013-03-20 01:20:00,
2013-03-19 20:25:00,38.5,19.5,30.20,NW,325,0.0,-999.0,46,0.00,,,0.00,Wunderground v.1.15,2013-03-20 01:25:00,
2013-03-19 20:30:00,38.1,21.1,30.20,NNW,348,1.0,-999.0,50,0.00,,,0.00,Wunderground v.1.15,2013-03-20 01:30:00,
2013-03-19 20:35:00,38.4,23.2,30.20,NW,309,1.0,-999.0,54,0.00,,,0.00,Wunderground v.1.15,2013-03-20 01:35:00,
2013-03-19 20:40:00,38.7,23.9,30.21,NNW,345,1.0,-999.0,55,0.00,,,0.00,Wunderground v.1.15,2013-03-20 01:40:00,
2013-03-19 20:45:00,38.4,24.1,30.21,NW,321,2.0,-999.0,56,0.00,,,0.00,Wunderground v.1.15,2013-03-20 01:45:00,
2013-03-19 20:50:00,38.3,24.0,30.22,NNW,332,2.0,-999.0,56,0.00,,,0.00,Wunderground v.1.15,2013-03-20 01:50:00,
2013-03-19 20:55:00,38.1,23.8,30.22,North,6,4.0,-999.0,56,0.00,,,0.00,Wunderground v.1.15,2013-03-20 01:55:00,
2013-03-19 21:00:00,38.0,23.7,30.23,NW,326,1.0,-999.0,56,0.00,,,0.00,Wunderground v.1.15,2013-03-20 02:00:00,
2013-03-19 21:05:00,37.7,23.0,30.23,NNW,342,0.0,-999.0,55,0.00,,,0.00,Wunderground v.1.15,2013-03-20 02:05:00,
2013-03-19 21:10:00,37.5,23.2,30.23,NW,321,1.0,-999.0,56,0.00,,,0.00,Wunderground v.1.15,2013-03-20 02:10:00,
2013-03-19 21:15:00,37.1,23.3,30.23,NW,311,0.0,-999.0,57,0.00,,,0.00,Wunderground v.1.15,2013-03-20 02:15:00,
2013-03-19 21:20:00,36.6,23.2,30.24,NNW,328,0.0,-999.0,58,0.00,,,0.00,Wunderground v.1.15,2013-03-20 02:20:00,
2013-03-19 21:25:00,36.3,23.3,30.24,NW,326,0.0,-999.0,59,0.00,,,0.00,Wunderground v.1.15,2013-03-20 02:25:00,
2013-03-19 21:30:00,36.0,23.4,30.24,NW,319,1.0,-999.0,60,0.00,,,0.00,Wunderground v.1.15,2013-03-20 02:30:00,
2013-03-19 21:35:00,36.1,23.5,30.25,NW,307,1.0,-999.0,60,0.00,,,0.00,Wunderground v.1.15,2013-03-20 02:35:00,
2013-03-19 21:40:00,36.1,23.9,30.25,NNW,328,2.0,-999.0,61,0.00,,,0.00,Wunderground v.1.15,2013-03-20 02:40:00,
2013-03-19 21:45:00,36.1,23.5,30.25,WNW,301,3.0,-999.0,60,0.00,,,0.00,Wunderground v.1.15,2013-03-20 02:45:00,
2013-03-19 21:50:00,36.0,23.4,30.25,NW,326,2.0,-999.0,60,0.00,,,0.00,Wunderground v.1.15,2013-03-20 02:50:00,
2013-03-19 21:55:00,35.8,23.3,30.25,NW,318,1.0,-999.0,60,0.00,,,0.00,Wunderground v.1.15,2013-03-20 02:55:00,
2013-03-19 22:00:00,35.5,23.4,30.25,WNW,298,2.0,-999.0,61,0.00,,,0.00,Wunderground v.1.15,2013-03-20 03:00:00,
2013-03-19 22:05:00,35.2,23.1,30.26,NNW,329,5.0,-999.0,61,0.00,,,0.00,Wunderground v.1.15,2013-03-20 03:05:00,
2013-03-19 22:10:00,34.9,22.8,30.26,NNW,337,3.0,-999.0,61,0.00,,,0.00,Wunderground v.1.15,2013-03-20 03:10:00,
2013-03-19 22:15:00,34.5,22.8,30.27,NW,307,5.0,-999.0,62,0.00,,,0.00,Wunderground v.1.15,2013-03-20 03:15:00,
2013-03-19 22:20:00,34.2,21.7,30.27,NNW,331,0.0,-999.0,60,0.00,,,0.00,Wunderground v.1.15,2013-03-20 03:20:00,
2013-03-19 22:25:00,33.9,21.1,30.27,NNW,335,2.0,-999.0,59,0.00,,,0.00,Wunderground v.1.15,2013-03-20 03:25:00,
2013-03-19 22:30:00,33.7,20.5,30.28,North,356,2.0,-999.0,58,0.00,,,0.00,Wunderground v.1.15,2013-03-20 03:30:00,
2013-03-19 22:35:00,33.4,20.6,30.28,NW,326,2.0,-999.0,59,0.00,,,0.00,Wunderground v.1.15,2013-03-20 03:35:00,
2013-03-19 22:40:00,33.2,20.4,30.28,NW,313,4.0,-999.0,59,0.00,,,0.00,Wunderground v.1.15,2013-03-20 03:40:00,
2013-03-19 22:45:00,32.9,20.5,30.29,NNW,346,5.0,-999.0,60,0.00,,,0.00,Wunderground v.1.15,2013-03-20 03:45:00,
2013-03-19 22:50:00,32.5,20.1,30.30,NW,323,0.0,-999.0,60,0.00,,,0.00,Wunderground v.1.15,2013-03-20 03:50:00,
2013-03-19 22:55:00,32.3,20.0,30.30,North,352,5.0,-999.0,60,0.00,,,0.00,Wunderground v.1.15,2013-03-20 03:55:00,
2013-03-19 23:00:00,32.1,20.5,30.30,NW,316,9.0,-999.0,62,0.00,,,0.00,Wunderground v.1.15,2013-03-20 04:00:00,
2013-03-19 23:01:00,32.0,20.4,30.30,NW,315,1.0,-999.0,62,0.00,,,0.00,Wunderground v.1.15,2013-03-20 04:01:00,
2013-03-19 23:06:00,31.7,20.2,30.30,NNW,327,4.0,-999.0,62,0.00,,,0.00,Wunderground v.1.15,2013-03-20 04:06:00,
2013-03-19 23:11:00,31.3,20.2,30.31,NE,49,3.0,-999.0,63,0.00,,,0.00,Wunderground v.1.15,2013-03-20 04:11:00,
2013-03-19 23:16:00,30.9,20.1,30.31,North,5,3.0,-999.0,64,0.00,,,0.00,Wunderground v.1.15,2013-03-20 04:16:00,
2013-03-19 23:21:00,30.7,20.0,30.31,NNW,334,5.0,-999.0,64,0.00,,,0.00,Wunderground v.1.15,2013-03-20 04:21:00,
2013-03-19 23:26:00,30.5,20.1,30.31,NNW,337,5.0,-999.0,65,0.00,,,0.00,Wunderground v.1.15,2013-03-20 04:26:00,
2013-03-19 23:31:00,30.3,20.3,30.32,NW,311,5.0,-999.0,66,0.00,,,0.00,Wunderground v.1.15,2013-03-20 04:31:00,
2013-03-19 23:36:00,30.1,20.1,30.32,NNW,338,0.0,-999.0,66,0.00,,,0.00,Wunderground v.1.15,2013-03-20 04:36:00,
2013-03-19 23:41:00,29.9,20.3,30.32,North,352,4.0,-999.0,67,0.00,,,0.00,Wunderground v.1.15,2013-03-20 04:41:00,
2013-03-19 23:46:00,29.6,18.5,30.32,NW,304,3.0,-999.0,63,0.00,,,0.00,Wunderground v.1.15,2013-03-20 04:46:00,
2013-03-19 23:51:00,29.3,17.9,30.33,WNW,303,7.0,-999.0,62,0.00,,,0.00,Wunderground v.1.15,2013-03-20 04:51:00,
2013-03-19 23:57:00,29.1,17.7,30.32,NNW,341,6.0,-999.0,62,0.00,,,0.00,Wunderground v.1.15,2013-03-20 04:57:00,